Location: Hartman Creek State Park
(44.3257°N, 89.2134°W)
Time: 23:23:13
(UTC-05:00)

Cosmos 2263 Rocket - Visible Passes

Search period start: 01 October 2014 00:00
Search period end: 11 October 2014 00:00
Orbit: 826 x 847 km, 71.0° (Epoch: 01 October)

Date Brightness Start Highest point End Pass type
(mag) Time Alt. Az. Time Alt. Az. Time Alt. Az.
01 Oct 4.1 20:21:13 10° NNE 20:23:43 13° NE 20:24:06 13° NE visible
01 Oct 3.8 22:03:17 10° NNW 22:05:48 27° NNW 22:05:48 27° NNW visible
02 Oct 4.1 20:04:50 10° NNE 20:07:00 12° NE 20:07:53 12° NE visible
02 Oct 3.6 21:46:41 10° NNW 21:49:35 31° N 21:49:35 31° N visible
03 Oct 4.2 19:48:31 10° NNE 19:50:17 11° NE 19:51:42 11° NE visible
03 Oct 3.3 21:30:05 10° NNW 21:33:24 34° N 21:33:24 34° N visible
03 Oct 5.0 23:14:48 10° NW 23:15:06 11° NW 23:15:06 11° NW visible
04 Oct 4.2 19:32:19 10° NNE 19:33:34 11° NE 19:34:48 10° NE visible
04 Oct 3.1 21:13:29 10° NNW 21:17:15 38° NNE 21:17:15 38° NNE visible
04 Oct 4.8 22:58:03 10° NW 22:58:57 14° NW 22:58:57 14° NW visible
05 Oct 2.8 20:56:53 10° NNW 21:01:09 41° NNE 21:01:09 41° NNE visible
05 Oct 4.6 22:41:19 10° NW 22:42:51 17° WNW 22:42:51 17° WNW visible
06 Oct 2.7 20:40:18 10° NNW 20:45:05 42° NE 20:45:05 42° NE visible
06 Oct 4.4 22:24:36 10° NW 22:26:48 21° WNW 22:26:48 21° WNW visible
07 Oct 2.6 20:23:42 10° NNW 20:28:58 41° ENE 20:29:05 41° ENE visible
07 Oct 4.1 22:07:53 10° NW 22:10:48 25° WNW 22:10:48 25° WNW visible
08 Oct 2.7 20:07:07 10° NNW 20:12:19 38° NE 20:13:08 36° ENE visible
08 Oct 3.8 21:51:11 10° NW 21:54:52 30° WNW 21:54:52 30° WNW visible
09 Oct 2.8 19:50:33 10° N 19:55:39 35° NE 19:57:17 30° E visible
09 Oct 3.4 21:34:30 10° NW 21:39:00 36° W 21:39:00 36° W visible
10 Oct 2.9 19:33:58 10° N 19:39:00 33° NE 19:41:31 23° E visible
10 Oct 3.2 21:17:49 10° NW 21:22:59 40° WSW 21:23:15 40° WSW visible
